Regional Weather Roundup
Issued by NWS Cleveland, OH

Home | Current Version | Previous Version | Graphics & Text | Print | Product List | Glossary On
Versions: 1 2 3 4 5 6 7 8 9 10 11 12 13 14 15 16 17 18 19 20 21 22 23 24 25 26 27 28 29 30 31 32 33 34 35 36 37 38 39 40 41 42 43 44 45 46 47 48 49 50
617
ASUS41 KCLE 191502
RWRCLE
OHIO REGIONAL WEATHER ROUNDUP
NATIONAL WEATHER SERVICE CLEVELAND, OH
1100 AM EDT SAT AUG 19 2017

NOTE: "FAIR" INDICATES FEW OR NO CLOUDS BELOW 12,000 FEET WITH NO
SIGNIFICANT WEATHER AND/OR OBSTRUCTIONS TO VISIBILITY.

OHZ001>008-015>018-024>027-034-035-043-044-191600-
   NORTHWEST OHIO

CITY           SKY/WX    TMP DP  RH WIND       PRES   REMARKS
DEFIANCE       MOSUNNY   73  65  75 W9        29.94R
FINDLAY        SUNNY     76  63  64 W8        29.92R
TOLEDO EXPRESS MOSUNNY   72  67  84 VRB7      29.92R
TOLEDO EXEC    SUNNY     74  66  76 W7        29.92S
LIMA           SUNNY     77  67  71 VRB7      29.93S
$$

OHZ009>014-019>023-028>033-038-089-191600-
   NORTHEAST OHIO

CITY           SKY/WX    TMP DP  RH WIND       PRES   REMARKS
CLE-HOPKINS    CLOUDY    75  66  73 W9        29.94R
CLE-LAKEFRONT  CLOUDY    73  66  78 W9        29.91R
CUY CO. ARPT   PTSUNNY   73  68  83 W12       29.93R
LORAIN-ELYRIA  MOSUNNY   72  61  68 W6        29.93R
ASHTABULA      CLOUDY    72  66  81 SW9       29.92R
AKRON-CANTON   CLOUDY    70  65  84 SW7       29.93F
WOOSTER        CLOUDY    72  66  81 SW7       29.94F
MANSFIELD      MOSUNNY   75  66  73 S7        29.94S
YOUNGSTOWN     CLOUDY    71  65  81 SW9       29.93R
$$

OHZ042-051>053-060>062-070>072-077>081-191600-
  SOUTHWEST OHIO

CITY           SKY/WX    TMP DP  RH WIND       PRES   REMARKS
CINC-COVINGTON CLOUDY    76  69  79 SW8       29.97R
CINC-LUNKEN    MOSUNNY   78  69  73 SW8       29.97R
HAMILTON       MOSUNNY   78  68  71 SW6       29.98R
DAYTON         CLOUDY    76  64  66 W8        29.97R
WRIGHT-PAT AFB MOSUNNY   76  67  73 SW6       29.96R
DAYTON GENERAL MOSUNNY   77  63  61 SW7       29.96R
WILMINGTON     CLOUDY    78  68  71 SW10      29.97R
$$

OHZ036-037-039>041-045>050-054>059-063>069-073>076-082>088-191600-
  CENTRAL AND SOUTHEAST OHIO

CITY           SKY/WX    TMP DP  RH WIND       PRES   REMARKS
COLUMBUS       MOSUNNY   76  66  71 SW8       29.94S
OSU AIRPORT    SUNNY     78  68  71 VRB7      29.94R
BOLTON FIELD   PTSUNNY   75  66  73 W6G18     29.95S
RICKENBACK AFB PTSUNNY   76  67  73 SW8       29.94F
NEWARK         MOSUNNY   77  67  71 SW8       29.94S
MARION         SUNNY     76  64  66 SW5       29.93F
LANCASTER      MOSUNNY   78  67  68 S6        29.95S
ZANESVILLE     SUNNY     77  67  71 S7        29.96R
NEW PHILLY     NOT AVBL
$$




USA.gov is the U.S. government's official web portal to all federal, state and local government web resources and services.